Location: Ferintosh
(52.7647°N, 112.9692°W)
Time: 18:19:27
(UTC+00:00)

S-56A Canister/Altair - Pass Details

Date: 26 May 2024
Orbit: 637 x 2489 km, 38.9° (Epoch: 22 June)

Event Time Altitude Azimuth Distance (km) Brightness Sun altitude
Rises 14:48:26 0° 251° (WSW) 5,844 11.5 28.7°
Reaches altitude 10° 14:52:56 10° 244° (WSW) 4,617 11.1 29.4°
Maximum altitude 15:03:32 37° 185° (S) 2,395 10.3 31.0°
Drops below altitude 10° 15:11:06 10° 122° (ESE) 3,279 11.9 32.1°
Sets 15:13:45 0° 113° (ESE) 4,015 12.2 32.5°
